Showing default

COSMOS 1833, 17589

Orbit data source: Space-Track

COSMOS 1833, 17589 is a payload satellite owned by GRU (CIS) in LEO that was launched on Wed, 18 Mar 1987 UTC via a ZENIT-2 launch vehicle from the Tyuratam Missile And Space Complex (TTMTR). Payload-class satellites include a variety of spacecraft equipped with specific instruments for various scientific and technological missions. These include communications satellites like Starlink; space stations such as the ISS; scientific satellites like the Hubble; Earth observation satellites from companies like Planet Labs, Umbra, and HawkEye 360; GPS; miniature CubeSats for education and research; and military/defense satellites.

Loading next visibility...
Identifier
17589, 1987-027A
Orbit
LEO
Last TLE update
6 hours ago
Origin
Manufacturer
Yuzhnoe
Mission
Defense Sigint
Bus & Motor
TSELINA-2, Unknown motor
Mass
3,250 kg wet, 3,250 kg dry
Launch date (UTC)
1987-03-18 (38 years ago)
Launch vehicle
ZENIT-2
Launch site
Tyuratam Missile And Space Complex (TTMTR)
Object type
Payload
Rocket body
Debris
Shape & HBR
Cyl + 2 Pan + 1 Ant, 22.7 m
Radar Cross Section
16.265 m², Large (>1 m²)

Expand to show TLE details & history

TLE from 6 hours ago
0 COSMOS 1833
1 17589U 87027A   25129.53096587 -.00000338  00000-0 -15497-3 0  9991
2 17589  70.9186 245.3364 0026967 296.3966  63.4387 14.13022716967573
Epoch: 2025-05-09T12:44Z
Definitive object data (Epoch: 2025-05-09T12:44:35.451Z)
Latitude
-0.00003°
Longitude
-173.3971°
Altitude
842.765 km
Speed
7.436 km/s
True Right ascension
16h 21m 20s
True Declination
0° 00' 00"
Sunlit
Object was in full shadow at TLE epoch
Visualization TLE readout
Latitude
63.70269°
Longitude
-38.02024°
Altitude
878.79 km
Speed
7.409 km/s
Apparent Right ascension
16h 22m 53s
Apparent Declination
49° 31' 53"
Sunlit
Object is in daylight
Visualization observer readout
Local Sidereal Time
02:31:59
Azimuth
342.403° N
Elevation
2.724°
Doppler factor
1
Orbital elements
Apogee altitude
866.465 km
Perigee altitude
827.497 km
Semi-major axis
7,225.118 km
Eccentricity
0.0026967
Inclination
70.9186°
RAAN
245.3364°
Arg. of periapsis
296.3966°
True anomaly
63.71552°
Mean anomaly
63.4387°
Eccentric anomaly
63.57707°
Mean motion
3.53407 °/min
BSTAR
-0.00015497
Orbital period
101.87 mins
Loading maneuver chart data...
Loading SW <> Apogee altitude chart data...
Loading historical data...
Loading historical data...
Loading historical data...
Loading historical data...
Loading historical data...
Loading historical data...
Loading historical data...

COSMOS 1833 Visibility forecast

Observer location: undefined°, undefined°

Span
Click to sort rows by Start time (UTC) header in descending order
Start Az.
Max El. time (UTC)
Max El. Az.
Max El.
End time (UTC)
End Az.
10 mins2025-05-09 18:23:11.730Z347.389° N2025-05-09 18:28:11.730Z48.476° ENE37.045°2025-05-09 18:33:11.730Z133.94° SE
7 mins2025-05-09 20:09:11.730Z299.802° NW2025-05-09 20:12:11.730Z262.333° W21.073°2025-05-09 20:16:11.730Z213.477° SW
4 mins2025-05-10 07:35:11.730Z115.187° SE2025-05-10 07:37:11.730Z91.833° ESE14.039°2025-05-10 07:39:11.730Z70.191° E
9 mins2025-05-10 09:16:11.730Z212.212° SW2025-05-10 09:20:11.730Z294.453° NW43.674°2025-05-10 09:25:11.730Z18.48° NNE
10 mins2025-05-10 18:11:11.730Z350.861° N2025-05-10 18:16:11.730Z77.996° E36.665°2025-05-10 18:21:11.730Z136.661° SSE
|